Time,TemperatureF,DewpointF,PressureIn,WindDirection,WindDirectionDegrees,WindSpeedMPH,WindSpeedGustMPH,Humidity,HourlyPrecipIn,Conditions,Clouds,dailyrainin,SoftwareType,DateUTC
2013-05-23 00:01:00,75.2,72.4,29.91,South,169,3.5,3.5,91,0.00,RA,,0.00,WeatherDisplay:10.37,2013-05-23 04:01:00,
2013-05-23 00:06:00,75.2,72.4,29.91,South,172,3.5,3.5,91,0.00,RA,,0.00,WeatherDisplay:10.37,2013-05-23 04:06:00,
2013-05-23 00:11:00,75.1,72.6,29.91,South,187,3.5,3.5,92,0.00,CLR,,0.00,WeatherDisplay:10.37,2013-05-23 04:11:00,
2013-05-23 00:16:00,75.1,72.6,29.91,South,186,1.2,0.0,92,0.00,CLR,,0.00,WeatherDisplay:10.37,2013-05-23 04:16:00,
2013-05-23 00:21:00,75.0,72.5,29.91,South,186,1.2,1.2,92,0.00,CLR,,0.00,WeatherDisplay:10.37,2013-05-23 04:21:00,
2013-05-23 00:26:00,75.0,72.5,29.90,South,186,2.3,2.3,92,0.00,CLR,,0.00,WeatherDisplay:10.37,2013-05-23 04:26:00,
2013-05-23 00:31:00,74.9,72.4,29.90,South,186,0.0,0.0,92,0.00,CLR,,0.00,WeatherDisplay:10.37,2013-05-23 04:31:00,
2013-05-23 00:36:00,74.8,72.3,29.90,South,186,0.0,0.0,92,0.00,CLR,,0.00,WeatherDisplay:10.37,2013-05-23 04:36:00,
2013-05-23 00:41:00,74.8,72.3,29.90,South,186,1.2,1.2,92,0.00,CLR,,0.00,WeatherDisplay:10.37,2013-05-23 04:41:00,
2013-05-23 00:46:00,74.8,72.3,29.90,South,186,2.3,2.3,92,0.00,CLR,,0.00,WeatherDisplay:10.37,2013-05-23 04:46:00,
2013-05-23 00:51:00,74.7,72.2,29.89,South,179,1.2,1.2,92,0.00,CLR,,0.00,WeatherDisplay:10.37,2013-05-23 04:51:00,
2013-05-23 00:56:00,74.7,72.2,29.89,South,175,1.2,1.2,92,0.00,CLR,,0.00,WeatherDisplay:10.37,2013-05-23 04:56:00,
2013-05-23 01:01:00,74.6,72.1,29.89,South,175,2.3,2.3,92,0.00,CLR,,0.00,WeatherDisplay:10.37,2013-05-23 05:01:00,
2013-05-23 01:06:00,74.6,72.1,29.89,South,171,3.5,3.5,92,0.00,CLR,,0.00,WeatherDisplay:10.37,2013-05-23 05:06:00,
2013-05-23 01:11:00,74.6,72.1,29.89,SSE,166,3.5,3.5,92,0.00,CLR,,0.00,WeatherDisplay:10.37,2013-05-23 05:11:00,
2013-05-23 01:16:00,74.6,72.1,29.89,South,170,3.5,3.5,92,0.00,CLR,,0.00,WeatherDisplay:10.37,2013-05-23 05:16:00,
2013-05-23 01:21:00,74.6,72.4,29.88,South,174,3.5,3.5,93,0.00,CLR,,0.00,WeatherDisplay:10.37,2013-05-23 05:21:00,
2013-05-23 01:26:00,74.7,72.5,29.88,South,178,3.5,3.5,93,0.00,CLR,,0.00,WeatherDisplay:10.37,2013-05-23 05:26:00,
2013-05-23 01:31:00,74.8,72.6,29.88,South,176,3.5,3.5,93,0.00,CLR,,0.00,WeatherDisplay:10.37,2013-05-23 05:31:00,
2013-05-23 01:36:00,74.9,72.7,29.88,SSE,163,2.3,2.3,93,0.00,CLR,,0.00,WeatherDisplay:10.37,2013-05-23 05:36:00,
2013-05-23 01:41:00,74.9,72.7,29.88,South,178,1.2,1.2,93,0.00,CLR,,0.00,WeatherDisplay:10.37,2013-05-23 05:41:00,
2013-05-23 01:46:00,74.9,72.4,29.88,South,184,3.5,3.5,92,0.00,CLR,,0.00,WeatherDisplay:10.37,2013-05-23 05:46:00,
2013-05-23 01:51:00,74.9,72.4,29.88,South,178,3.5,3.5,92,0.00,CLR,,0.00,WeatherDisplay:10.37,2013-05-23 05:51:00,
2013-05-23 01:56:00,75.0,72.5,29.88,South,182,3.5,3.5,92,0.00,CLR,,0.00,WeatherDisplay:10.37,2013-05-23 05:56:00,
2013-05-23 02:01:00,75.1,72.3,29.88,SSW,196,3.5,3.5,91,0.00,CLR,,0.00,WeatherDisplay:10.37,2013-05-23 06:01:00,
2013-05-23 02:06:00,75.3,72.2,29.88,South,179,4.6,4.6,90,0.00,CLR,,0.00,WeatherDisplay:10.37,2013-05-23 06:06:00,
2013-05-23 02:11:00,75.5,72.4,29.88,SSW,208,6.9,6.9,90,0.00,CLR,,0.00,WeatherDisplay:10.37,2013-05-23 06:11:00,
2013-05-23 02:16:00,75.7,72.6,29.88,South,190,6.9,6.9,90,0.00,CLR,,0.00,WeatherDisplay:10.37,2013-05-23 06:16:00,
2013-05-23 02:21:00,75.8,72.3,29.87,SSW,198,3.5,3.5,89,0.00,CLR,,0.00,WeatherDisplay:10.37,2013-05-23 06:21:00,
2013-05-23 02:26:00,75.9,72.8,29.87,SSW,202,5.8,5.8,90,0.00,CLR,,0.00,WeatherDisplay:10.37,2013-05-23 06:26:00,
2013-05-23 02:31:00,75.9,72.8,29.87,SSE,161,6.9,6.9,90,0.00,CLR,,0.00,WeatherDisplay:10.37,2013-05-23 06:31:00,
2013-05-23 02:36:00,75.8,72.7,29.87,SSE,163,4.6,4.6,90,0.00,CLR,,0.00,WeatherDisplay:10.37,2013-05-23 06:36:00,
2013-05-23 02:41:00,75.7,72.2,29.87,SSW,204,6.9,6.9,89,0.00,CLR,,0.00,WeatherDisplay:10.37,2013-05-23 06:41:00,
2013-05-23 02:46:00,75.7,72.6,29.87,SSW,207,5.8,5.8,90,0.00,CLR,,0.00,WeatherDisplay:10.37,2013-05-23 06:46:00,
2013-05-23 02:51:00,75.6,72.5,29.87,South,189,5.0,5.0,90,0.00,CLR,,0.00,WeatherDisplay:10.37,2013-05-23 06:51:00,
2013-05-23 02:56:00,75.6,72.5,29.87,SSW,207,3.5,3.5,90,0.00,CLR,,0.00,WeatherDisplay:10.37,2013-05-23 06:56:00,
2013-05-23 03:01:00,75.5,72.4,29.87,SSW,192,6.9,6.9,90,0.00,CLR,,0.00,WeatherDisplay:10.37,2013-05-23 07:01:00,
2013-05-23 03:06:00,75.4,72.3,29.87,SSW,213,6.9,6.9,90,0.00,CLR,,0.00,WeatherDisplay:10.37,2013-05-23 07:06:00,
2013-05-23 03:11:00,75.3,72.2,29.87,WSW,240,4.6,4.6,90,0.00,CLR,,0.00,WeatherDisplay:10.37,2013-05-23 07:11:00,
2013-05-23 03:16:00,75.2,72.1,29.87,SSW,195,4.6,4.6,90,0.00,CLR,,0.00,WeatherDisplay:10.37,2013-05-23 07:16:00,
2013-05-23 03:21:00,75.1,72.3,29.87,SW,226,6.9,6.9,91,0.00,CLR,,0.00,WeatherDisplay:10.37,2013-05-23 07:21:00,
2013-05-23 03:26:00,75.0,72.2,29.87,SSW,212,4.6,4.6,91,0.00,CLR,,0.00,WeatherDisplay:10.37,2013-05-23 07:26:00,
2013-05-23 03:31:00,74.9,72.1,29.87,SW,223,4.6,4.6,91,0.00,CLR,,0.00,WeatherDisplay:10.37,2013-05-23 07:31:00,
2013-05-23 03:36:00,74.8,72.0,29.87,SSW,213,4.6,4.6,91,0.00,CLR,,0.00,WeatherDisplay:10.37,2013-05-23 07:36:00,
2013-05-23 03:41:00,74.6,71.8,29.87,SW,223,4.6,4.6,91,0.00,CLR,,0.00,WeatherDisplay:10.37,2013-05-23 07:41:00,
2013-05-23 03:46:00,74.4,71.9,29.87,SW,217,4.6,4.6,92,0.00,CLR,,0.00,WeatherDisplay:10.37,2013-05-23 07:46:00,
2013-05-23 03:51:00,74.3,71.8,29.87,SW,216,3.5,3.5,92,0.00,CLR,,0.00,WeatherDisplay:10.37,2013-05-23 07:51:00,
2013-05-23 03:56:00,74.2,71.7,29.88,SW,215,3.5,3.5,92,0.00,CLR,,0.00,WeatherDisplay:10.37,2013-05-23 07:56:00,
2013-05-23 04:01:00,74.1,71.6,29.88,WSW,238,4.0,4.0,92,0.00,CLR,,0.00,WeatherDisplay:10.37,2013-05-23 08:01:00,
2013-05-23 04:06:00,74.0,71.5,29.87,SW,229,4.6,4.6,92,0.00,CLR,,0.00,WeatherDisplay:10.37,2013-05-23 08:06:00,
2013-05-23 04:11:00,73.9,71.4,29.88,SW,228,5.8,5.8,92,0.00,CLR,,0.00,WeatherDisplay:10.37,2013-05-23 08:11:00,
2013-05-23 04:16:00,73.9,71.4,29.88,WSW,250,4.6,4.6,92,0.00,CLR,,0.00,WeatherDisplay:10.37,2013-05-23 08:16:00,
2013-05-23 04:21:00,73.8,71.3,29.88,SW,220,5.8,5.8,92,0.00,CLR,,0.00,WeatherDisplay:10.37,2013-05-23 08:21:00,
2013-05-23 04:26:00,73.8,71.3,29.88,SSW,206,5.8,5.8,92,0.00,CLR,,0.00,WeatherDisplay:10.37,2013-05-23 08:26:00,
2013-05-23 04:31:00,73.7,71.2,29.88,SW,215,5.8,5.8,92,0.00,CLR,,0.00,WeatherDisplay:10.37,2013-05-23 08:31:00,
2013-05-23 04:36:00,73.6,71.4,29.88,SSW,210,7.0,7.0,93,0.00,CLR,,0.00,WeatherDisplay:10.37,2013-05-23 08:36:00,
2013-05-23 04:41:00,73.6,71.4,29.88,SW,214,9.0,9.0,93,0.00,CLR,,0.00,WeatherDisplay:10.37,2013-05-23 08:41:00,
2013-05-23 04:46:00,73.6,71.4,29.88,WSW,245,6.9,6.9,93,0.00,CLR,,0.00,WeatherDisplay:10.37,2013-05-23 08:46:00,
2013-05-23 04:51:00,73.5,71.4,29.88,WSW,250,10.4,10.4,93,0.00,CLR,,0.00,WeatherDisplay:10.37,2013-05-23 08:51:00,
2013-05-23 04:56:00,73.4,71.6,29.89,SW,223,5.8,5.8,94,0.00,CLR,,0.00,WeatherDisplay:10.37,2013-05-23 08:56:00,
2013-05-23 05:01:00,73.3,71.5,29.89,SW,217,5.8,5.8,94,0.00,CLR,,0.00,WeatherDisplay:10.37,2013-05-23 09:01:00,
2013-05-23 05:06:00,73.3,71.5,29.89,SW,217,9.2,9.2,94,0.00,CLR,,0.00,WeatherDisplay:10.37,2013-05-23 09:06:00,
2013-05-23 05:11:00,73.1,71.3,29.89,SW,227,7.0,7.0,94,0.00,CLR,,0.00,WeatherDisplay:10.37,2013-05-23 09:11:00,
2013-05-23 05:16:00,73.1,71.6,29.89,SW,230,5.0,5.0,95,0.00,CLR,,0.00,WeatherDisplay:10.37,2013-05-23 09:16:00,
2013-05-23 05:21:00,73.1,71.6,29.89,SW,227,4.0,4.0,95,0.00,CLR,,0.00,WeatherDisplay:10.37,2013-05-23 09:21:00,
2013-05-23 05:26:00,73.0,71.5,29.89,SW,230,5.8,5.8,95,0.00,CLR,,0.00,WeatherDisplay:10.37,2013-05-23 09:26:00,
2013-05-23 05:31:00,73.0,71.5,29.89,SW,233,3.5,3.5,95,0.00,CLR,,0.00,WeatherDisplay:10.37,2013-05-23 09:31:00,
2013-05-23 05:36:00,73.0,71.5,29.90,SW,217,5.8,5.8,95,0.00,CLR,,0.00,WeatherDisplay:10.37,2013-05-23 09:36:00,
2013-05-23 05:41:00,72.9,71.4,29.90,SW,223,4.6,4.6,95,0.00,CLR,,0.00,WeatherDisplay:10.37,2013-05-23 09:41:00,
2013-05-23 05:46:00,72.9,71.7,29.90,SW,234,3.5,3.5,96,0.00,CLR,,0.00,WeatherDisplay:10.37,2013-05-23 09:46:00,
2013-05-23 05:51:00,72.8,71.6,29.90,West,261,6.0,6.0,96,0.00,CLR,,0.00,WeatherDisplay:10.37,2013-05-23 09:51:00,
2013-05-23 05:56:00,72.8,71.6,29.90,West,259,4.6,4.6,96,0.00,CLR,,0.00,WeatherDisplay:10.37,2013-05-23 09:56:00,
2013-05-23 06:01:00,72.8,71.6,29.90,SW,232,4.6,4.6,96,0.00,CLR,,0.00,WeatherDisplay:10.37,2013-05-23 10:01:00,
2013-05-23 06:06:00,72.8,71.6,29.90,WSW,254,5.8,5.8,96,0.00,CLR,,0.00,WeatherDisplay:10.37,2013-05-23 10:06:00,
2013-05-23 06:11:00,72.8,71.6,29.90,WSW,245,5.8,5.8,96,0.00,CLR,,0.00,WeatherDisplay:10.37,2013-05-23 10:11:00,
2013-05-23 06:16:00,72.8,71.9,29.91,West,270,5.8,5.8,97,0.00,CLR,,0.00,WeatherDisplay:10.37,2013-05-23 10:16:00,
2013-05-23 06:21:00,72.8,71.9,29.91,SW,234,8.1,8.1,97,0.00,CLR,,0.00,WeatherDisplay:10.37,2013-05-23 10:21:00,
2013-05-23 06:26:00,72.8,71.9,29.91,WSW,252,6.9,6.9,97,0.00,CLR,,0.00,WeatherDisplay:10.37,2013-05-23 10:26:00,
2013-05-23 06:31:00,72.9,72.0,29.91,West,263,6.9,6.9,97,0.00,CLR,,0.00,WeatherDisplay:10.37,2013-05-23 10:31:00,
2013-05-23 06:36:00,72.9,72.0,29.92,West,265,9.2,9.2,97,0.00,CLR,,0.00,WeatherDisplay:10.37,2013-05-23 10:36:00,
2013-05-23 06:41:00,72.9,72.0,29.92,West,274,4.0,4.0,97,0.00,CLR,,0.00,WeatherDisplay:10.37,2013-05-23 10:41:00,
2013-05-23 06:46:00,72.8,71.9,29.93,WNW,288,10.4,10.4,97,0.00,CLR,,0.00,WeatherDisplay:10.37,2013-05-23 10:46:00,
2013-05-23 06:51:00,72.7,71.8,29.93,WSW,251,5.8,5.8,97,0.00,CLR,,0.00,WeatherDisplay:10.37,2013-05-23 10:51:00,
2013-05-23 06:56:00,72.6,71.7,29.93,SW,225,4.6,4.6,97,0.00,CLR,,0.00,WeatherDisplay:10.37,2013-05-23 10:56:00,
2013-05-23 07:01:00,72.6,71.7,29.94,WSW,249,3.5,3.5,97,0.00,CLR,,0.00,WeatherDisplay:10.37,2013-05-23 11:01:00,
2013-05-23 07:06:00,72.6,71.7,29.94,WSW,256,5.0,5.0,97,0.00,CLR,,0.00,WeatherDisplay:10.37,2013-05-23 11:06:00,
2013-05-23 07:11:00,72.5,71.6,29.94,WNW,287,9.2,9.2,97,0.00,CLR,,0.00,WeatherDisplay:10.37,2013-05-23 11:11:00,
2013-05-23 07:16:00,72.5,71.6,29.95,WSW,249,5.8,5.8,97,0.00,CLR,,0.00,WeatherDisplay:10.37,2013-05-23 11:16:00,
2013-05-23 07:21:00,72.5,71.9,29.95,West,259,4.6,4.6,98,0.00,CLR,,0.00,WeatherDisplay:10.37,2013-05-23 11:21:00,
2013-05-23 07:26:00,72.5,71.9,29.95,SW,234,3.5,0.0,98,0.00,CLR,,0.00,WeatherDisplay:10.37,2013-05-23 11:26:00,
2013-05-23 07:31:00,72.6,72.0,29.95,WNW,292,5.0,5.0,98,0.00,CLR,,0.00,WeatherDisplay:10.37,2013-05-23 11:31:00,
2013-05-23 07:36:00,72.6,72.0,29.95,West,265,5.0,5.0,98,0.00,CLR,,0.00,WeatherDisplay:10.37,2013-05-23 11:36:00,
2013-05-23 07:41:00,72.5,71.9,29.96,West,279,8.1,8.1,98,0.00,CLR,,0.00,WeatherDisplay:10.37,2013-05-23 11:41:00,
2013-05-23 07:46:00,72.4,71.8,29.96,WNW,288,8.1,8.1,98,0.00,CLR,,0.00,WeatherDisplay:10.37,2013-05-23 11:46:00,
2013-05-23 07:51:00,72.6,72.0,29.96,West,261,4.6,4.6,98,0.00,CLR,,0.00,WeatherDisplay:10.37,2013-05-23 11:51:00,
2013-05-23 07:56:00,72.8,71.9,29.96,WSW,254,3.5,3.5,97,0.00,CLR,,0.00,WeatherDisplay:10.37,2013-05-23 11:56:00,
2013-05-23 08:01:00,73.1,72.2,29.95,WSW,252,10.4,10.4,97,0.00,CLR,,0.00,WeatherDisplay:10.37,2013-05-23 12:01:00,
2013-05-23 08:06:00,73.4,72.5,29.96,WSW,256,7.0,7.0,97,0.00,CLR,,0.00,WeatherDisplay:10.37,2013-05-23 12:06:00,
2013-05-23 08:11:00,73.7,72.5,29.96,WSW,258,5.8,5.8,96,0.00,CLR,,0.00,WeatherDisplay:10.37,2013-05-23 12:11:00,
2013-05-23 08:16:00,74.1,72.6,29.96,West,263,4.6,4.6,95,0.00,CLR,,0.00,WeatherDisplay:10.37,2013-05-23 12:16:00,
2013-05-23 08:21:00,74.6,72.8,29.96,WSW,240,6.9,6.9,94,0.00,CLR,,0.00,WeatherDisplay:10.37,2013-05-23 12:21:00,
2013-05-23 08:26:00,75.1,72.9,29.96,West,274,7.0,7.0,93,0.00,CLR,,0.00,WeatherDisplay:10.37,2013-05-23 12:26:00,
2013-05-23 08:31:00,75.7,73.5,29.96,WSW,238,11.5,11.5,93,0.00,CLR,,0.00,WeatherDisplay:10.37,2013-05-23 12:31:00,
2013-05-23 08:36:00,75.8,73.0,29.96,WSW,258,5.8,5.8,91,0.00,CLR,,0.00,WeatherDisplay:10.37,2013-05-23 12:36:00,
2013-05-23 08:41:00,76.2,73.1,29.96,WNW,294,10.0,10.0,90,0.00,CLR,,0.00,WeatherDisplay:10.37,2013-05-23 12:41:00,
2013-05-23 08:46:00,76.8,73.6,29.96,West,277,7.0,7.0,90,0.00,CLR,,0.00,WeatherDisplay:10.37,2013-05-23 12:46:00,
2013-05-23 08:51:00,77.2,73.0,29.96,West,263,8.1,8.1,87,0.00,CLR,,0.00,WeatherDisplay:10.37,2013-05-23 12:51:00,
2013-05-23 08:56:00,77.4,72.9,29.96,WNW,294,9.2,9.2,86,0.00,CLR,,0.00,WeatherDisplay:10.37,2013-05-23 12:56:00,
2013-05-23 09:01:00,77.6,73.1,29.96,West,276,10.4,10.4,86,0.00,CLR,,0.00,WeatherDisplay:10.37,2013-05-23 13:01:00,
2013-05-23 09:06:00,78.0,73.5,29.96,West,263,4.6,4.6,86,0.00,CLR,,0.00,WeatherDisplay:10.37,2013-05-23 13:06:00,
2013-05-23 09:11:00,78.2,73.7,29.96,WSW,245,5.0,5.0,86,0.00,CLR,,0.00,WeatherDisplay:10.37,2013-05-23 13:11:00,
2013-05-23 09:16:00,78.6,73.0,29.96,WNW,302,6.9,6.9,83,0.00,CLR,,0.00,WeatherDisplay:10.37,2013-05-23 13:16:00,
2013-05-23 09:21:00,78.9,72.9,29.96,West,265,11.5,11.5,82,0.00,CLR,,0.00,WeatherDisplay:10.37,2013-05-23 13:21:00,
2013-05-23 09:26:00,79.1,73.1,29.96,West,279,9.2,9.2,82,0.00,CLR,,0.00,WeatherDisplay:10.37,2013-05-23 13:26:00,
2013-05-23 09:31:00,79.4,73.4,29.96,WNW,300,5.8,5.8,82,0.00,CLR,,0.00,WeatherDisplay:10.37,2013-05-23 13:31:00,
2013-05-23 09:36:00,80.1,73.0,29.96,WNW,298,9.2,9.2,79,0.00,CLR,,0.00,WeatherDisplay:10.37,2013-05-23 13:36:00,
2013-05-23 09:41:00,80.4,73.3,29.96,West,277,6.9,6.9,79,0.00,CLR,,0.00,WeatherDisplay:10.37,2013-05-23 13:41:00,
2013-05-23 09:46:00,80.6,72.7,29.96,West,274,11.5,11.5,77,0.01,RA,,0.01,WeatherDisplay:10.37,2013-05-23 13:46:00,
2013-05-23 09:51:00,80.4,72.5,29.97,West,268,8.1,8.1,77,0.01,RA,,0.01,WeatherDisplay:10.37,2013-05-23 13:51:00,
2013-05-23 09:56:00,80.8,72.5,29.97,WSW,258,6.0,6.0,76,0.01,,,0.01,WeatherDisplay:10.37,2013-05-23 13:56:00,
2013-05-23 10:01:00,81.2,72.5,29.97,West,261,6.9,6.9,75,0.01,CLR,,0.01,WeatherDisplay:10.37,2013-05-23 14:01:00,
2013-05-23 10:06:00,81.7,73.4,29.97,WSW,258,9.2,9.2,76,0.01,CLR,,0.01,WeatherDisplay:10.37,2013-05-23 14:06:00,
2013-05-23 10:11:00,82.1,73.0,29.97,NW,316,8.1,8.1,74,0.01,CLR,,0.01,WeatherDisplay:10.37,2013-05-23 14:11:00,
2013-05-23 10:16:00,82.4,72.5,29.97,WNW,295,9.2,9.2,72,0.01,CLR,,0.01,WeatherDisplay:10.37,2013-05-23 14:16:00,
2013-05-23 10:21:00,82.5,72.6,29.97,WNW,288,6.9,6.9,72,0.01,CLR,,0.01,WeatherDisplay:10.37,2013-05-23 14:21:00,
2013-05-23 10:26:00,83.1,73.5,29.97,West,262,6.9,6.9,73,0.01,CLR,,0.01,WeatherDisplay:10.37,2013-05-23 14:26:00,
2013-05-23 10:31:00,83.1,72.7,29.97,WNW,291,10.4,10.4,71,0.01,CLR,,0.01,WeatherDisplay:10.37,2013-05-23 14:31:00,
2013-05-23 10:36:00,83.5,73.1,29.97,NW,321,10.0,10.0,71,0.01,CLR,,0.01,WeatherDisplay:10.37,2013-05-23 14:36:00,
2013-05-23 10:41:00,83.4,72.6,29.97,WSW,254,10.4,10.4,70,0.01,CLR,,0.01,WeatherDisplay:10.37,2013-05-23 14:41:00,
2013-05-23 10:46:00,83.3,72.1,29.97,West,281,10.4,10.4,69,0.00,CLR,,0.01,WeatherDisplay:10.37,2013-05-23 14:46:00,
2013-05-23 10:51:00,83.1,71.9,29.97,West,271,11.5,11.5,69,0.00,CLR,,0.01,WeatherDisplay:10.37,2013-05-23 14:51:00,
2013-05-23 10:56:00,83.3,72.1,29.97,West,267,6.9,6.9,69,0.00,CLR,,0.01,WeatherDisplay:10.37,2013-05-23 14:56:00,
2013-05-23 11:01:00,83.7,72.9,29.97,NNW,337,10.4,10.4,70,0.00,CLR,,0.01,WeatherDisplay:10.37,2013-05-23 15:01:00,
2013-05-23 11:06:00,84.3,72.6,29.97,WNW,282,5.8,5.8,68,0.00,CLR,,0.01,WeatherDisplay:10.37,2013-05-23 15:06:00,
2013-05-23 11:11:00,83.8,72.1,29.97,WSW,246,6.9,6.9,68,0.00,CLR,,0.01,WeatherDisplay:10.37,2013-05-23 15:11:00,
2013-05-23 11:16:00,83.9,72.2,29.97,West,275,9.0,9.0,68,0.00,CLR,,0.01,WeatherDisplay:10.37,2013-05-23 15:16:00,
2013-05-23 11:21:00,83.7,72.0,29.97,West,281,5.0,5.0,68,0.00,CLR,,0.01,WeatherDisplay:10.37,2013-05-23 15:21:00,
2013-05-23 11:26:00,84.5,72.8,29.97,WNW,283,10.4,10.4,68,0.00,CLR,,0.01,WeatherDisplay:10.37,2013-05-23 15:26:00,
2013-05-23 11:31:00,84.8,72.2,29.97,NNW,340,4.6,4.6,66,0.00,CLR,,0.01,WeatherDisplay:10.37,2013-05-23 15:31:00,
2013-05-23 11:36:00,85.1,72.5,29.97,WNW,290,4.0,4.0,66,0.00,CLR,,0.01,WeatherDisplay:10.37,2013-05-23 15:36:00,
2013-05-23 11:41:00,85.4,72.7,29.97,West,269,6.9,6.9,66,0.00,CLR,,0.01,WeatherDisplay:10.37,2013-05-23 15:41:00,
2013-05-23 11:46:00,85.4,71.8,29.97,WNW,286,11.5,11.5,64,0.00,CLR,,0.01,WeatherDisplay:10.37,2013-05-23 15:46:00,
2013-05-23 11:51:00,85.4,71.8,29.97,WSW,246,3.5,3.5,64,0.00,CLR,,0.01,WeatherDisplay:10.37,2013-05-23 15:51:00,
2013-05-23 11:56:00,84.9,70.9,29.97,West,263,11.5,11.5,63,0.00,CLR,,0.01,WeatherDisplay:10.37,2013-05-23 15:56:00,
2013-05-23 12:01:00,84.4,71.8,29.97,WSW,237,3.5,3.5,66,0.00,CLR,,0.01,WeatherDisplay:10.37,2013-05-23 16:01:00,
2013-05-23 12:06:00,84.6,71.5,29.97,WNW,287,10.4,10.4,65,0.00,CLR,,0.01,WeatherDisplay:10.37,2013-05-23 16:06:00,
2013-05-23 12:11:00,85.7,71.7,29.97,WNW,303,5.8,5.8,63,0.00,CLR,,0.01,WeatherDisplay:10.37,2013-05-23 16:11:00,
2013-05-23 12:16:00,86.1,70.6,29.97,WNW,296,9.2,9.2,60,0.00,CLR,,0.01,WeatherDisplay:10.37,2013-05-23 16:16:00,
2013-05-23 12:21:00,86.5,71.0,29.96,WNW,299,11.5,11.5,60,0.00,CLR,,0.01,WeatherDisplay:10.37,2013-05-23 16:21:00,
2013-05-23 12:26:00,86.8,71.7,29.96,West,267,6.9,6.9,61,0.00,CLR,,0.01,WeatherDisplay:10.37,2013-05-23 16:26:00,
2013-05-23 12:31:00,87.2,71.6,29.96,West,265,11.5,11.5,60,0.00,CLR,,0.01,WeatherDisplay:10.37,2013-05-23 16:31:00,
2013-05-23 12:36:00,86.6,71.1,29.96,West,266,9.2,9.2,60,0.00,CLR,,0.01,WeatherDisplay:10.37,2013-05-23 16:36:00,
2013-05-23 12:41:00,86.6,69.6,29.96,West,279,11.5,11.5,57,0.00,CLR,,0.01,WeatherDisplay:10.37,2013-05-23 16:41:00,
2013-05-23 12:46:00,87.0,69.9,29.96,WSW,246,4.6,4.6,57,0.00,CLR,,0.01,WeatherDisplay:10.37,2013-05-23 16:46:00,
2013-05-23 12:51:00,87.1,70.0,29.96,West,281,10.4,10.4,57,0.00,CLR,,0.01,WeatherDisplay:10.37,2013-05-23 16:51:00,
2013-05-23 12:56:00,87.1,70.5,29.96,NW,309,5.8,5.8,58,0.00,CLR,,0.01,WeatherDisplay:10.37,2013-05-23 16:56:00,
2013-05-23 13:01:00,87.6,71.5,29.96,WSW,254,11.5,11.5,59,0.00,CLR,,0.01,WeatherDisplay:10.37,2013-05-23 17:01:00,
2013-05-23 13:06:00,86.9,70.3,29.96,West,278,10.4,10.4,58,0.00,CLR,,0.01,WeatherDisplay:10.37,2013-05-23 17:06:00,
2013-05-23 13:11:00,87.2,70.1,29.96,West,268,10.4,10.4,57,0.00,CLR,,0.01,WeatherDisplay:10.37,2013-05-23 17:11:00,
2013-05-23 13:16:00,87.4,69.8,29.95,West,271,9.0,9.0,56,0.00,CLR,,0.01,WeatherDisplay:10.37,2013-05-23 17:16:00,
2013-05-23 13:21:00,87.7,70.6,29.95,West,268,5.8,5.8,57,0.00,CLR,,0.01,WeatherDisplay:10.37,2013-05-23 17:21:00,
2013-05-23 13:26:00,87.5,68.8,29.96,West,259,11.5,11.5,54,0.00,CLR,,0.01,WeatherDisplay:10.37,2013-05-23 17:26:00,
2013-05-23 13:31:00,87.4,70.3,29.96,WNW,288,10.4,10.4,57,0.00,CLR,,0.01,WeatherDisplay:10.37,2013-05-23 17:31:00,
2013-05-23 13:36:00,87.6,70.0,29.96,West,266,6.9,6.9,56,0.00,CLR,,0.01,WeatherDisplay:10.37,2013-05-23 17:36:00,
2013-05-23 13:41:00,87.8,70.7,29.95,West,264,11.5,11.5,57,0.00,CLR,,0.01,WeatherDisplay:10.37,2013-05-23 17:41:00,
2013-05-23 13:46:00,87.7,71.1,29.95,WSW,248,11.0,11.0,58,0.00,CLR,,0.01,WeatherDisplay:10.37,2013-05-23 17:46:00,
2013-05-23 13:51:00,87.7,70.6,29.95,WNW,285,10.4,10.4,57,0.00,CLR,,0.01,WeatherDisplay:10.37,2013-05-23 17:51:00,
2013-05-23 13:56:00,88.0,69.8,29.95,WNW,282,4.6,4.6,55,0.00,CLR,,0.01,WeatherDisplay:10.37,2013-05-23 17:56:00,
2013-05-23 14:01:00,88.5,70.8,29.95,West,277,5.8,5.8,56,0.00,CLR,,0.01,WeatherDisplay:10.37,2013-05-23 18:01:00,
2013-05-23 14:06:00,88.9,70.6,29.95,WNW,295,6.0,6.0,55,0.00,CLR,,0.01,WeatherDisplay:10.37,2013-05-23 18:06:00,
2013-05-23 14:11:00,89.1,69.2,29.95,NW,316,9.2,9.2,52,0.00,CLR,,0.01,WeatherDisplay:10.37,2013-05-23 18:11:00,
2013-05-23 14:16:00,89.6,69.6,29.95,WNW,300,6.9,6.9,52,0.00,CLR,,0.01,WeatherDisplay:10.37,2013-05-23 18:16:00,
2013-05-23 14:21:00,89.6,70.2,29.95,West,263,5.8,5.8,53,0.00,CLR,,0.01,WeatherDisplay:10.37,2013-05-23 18:21:00,
2013-05-23 14:26:00,89.7,68.0,29.95,NW,311,9.2,9.2,49,0.00,CLR,,0.01,WeatherDisplay:10.37,2013-05-23 18:26:00,
2013-05-23 14:31:00,90.0,69.4,29.95,WNW,302,5.8,5.8,51,0.00,CLR,,0.01,WeatherDisplay:10.37,2013-05-23 18:31:00,
2013-05-23 14:36:00,90.3,68.5,29.95,WSW,258,6.9,6.9,49,0.00,CLR,,0.01,WeatherDisplay:10.37,2013-05-23 18:36:00,
2013-05-23 14:41:00,89.8,68.7,29.94,West,270,3.5,3.5,50,0.00,CLR,,0.01,WeatherDisplay:10.37,2013-05-23 18:41:00,
2013-05-23 14:46:00,90.1,69.5,29.94,NW,311,4.6,4.6,51,0.00,CLR,,0.01,WeatherDisplay:10.37,2013-05-23 18:46:00,
2013-05-23 14:51:00,90.2,68.5,29.94,West,263,3.5,3.5,49,0.00,CLR,,0.01,WeatherDisplay:10.37,2013-05-23 18:51:00,
2013-05-23 14:56:00,89.7,68.6,29.94,WSW,254,8.1,8.1,50,0.00,CLR,,0.01,WeatherDisplay:10.37,2013-05-23 18:56:00,
2013-05-23 15:01:00,89.9,69.3,29.94,North,5,3.5,3.5,51,0.00,CLR,,0.01,WeatherDisplay:10.37,2013-05-23 19:01:00,
2013-05-23 15:06:00,90.5,68.7,29.93,NW,312,3.5,3.5,49,0.00,CLR,,0.01,WeatherDisplay:10.37,2013-05-23 19:06:00,
2013-05-23 15:11:00,91.2,68.8,29.93,ESE,110,4.6,4.6,48,0.00,CLR,,0.01,WeatherDisplay:10.37,2013-05-23 19:11:00,
2013-05-23 15:16:00,90.7,68.3,29.93,NW,308,11.5,11.5,48,0.00,CLR,,0.01,WeatherDisplay:10.37,2013-05-23 19:16:00,
2013-05-23 15:21:00,90.6,67.6,29.92,SW,229,4.6,4.6,47,0.00,CLR,,0.01,WeatherDisplay:10.37,2013-05-23 19:21:00,
2013-05-23 15:26:00,89.9,68.2,29.92,WSW,248,6.0,6.0,49,0.00,CLR,,0.01,WeatherDisplay:10.37,2013-05-23 19:26:00,
2013-05-23 15:31:00,89.6,68.5,29.92,WSW,244,6.9,6.9,50,0.00,CLR,,0.01,WeatherDisplay:10.37,2013-05-23 19:31:00,
2013-05-23 15:36:00,89.2,68.1,29.92,West,281,4.6,4.6,50,0.00,CLR,,0.01,WeatherDisplay:10.37,2013-05-23 19:36:00,
2013-05-23 15:41:00,89.5,68.4,29.92,West,273,1.2,0.0,50,0.00,CLR,,0.01,WeatherDisplay:10.37,2013-05-23 19:41:00,
2013-05-23 15:46:00,90.4,68.0,29.92,WSW,255,6.0,6.0,48,0.00,CLR,,0.01,WeatherDisplay:10.37,2013-05-23 19:46:00,
2013-05-23 15:51:00,90.8,67.8,29.91,WSW,254,8.0,8.0,47,0.00,CLR,,0.01,WeatherDisplay:10.37,2013-05-23 19:51:00,
2013-05-23 15:56:00,90.6,68.2,29.91,WNW,286,4.6,4.6,48,0.00,CLR,,0.01,WeatherDisplay:10.37,2013-05-23 19:56:00,
2013-05-23 16:01:00,91.1,69.3,29.91,NNW,335,3.5,3.5,49,0.00,CLR,,0.01,WeatherDisplay:10.37,2013-05-23 20:01:00,
2013-05-23 16:06:00,91.9,71.8,29.91,NE,49,3.0,3.0,52,0.00,CLR,,0.01,WeatherDisplay:10.37,2013-05-23 20:06:00,
2013-05-23 16:11:00,90.4,74.1,29.91,East,92,9.2,9.2,59,0.00,CLR,,0.01,WeatherDisplay:10.37,2013-05-23 20:11:00,
2013-05-23 16:16:00,87.2,73.5,29.91,ENE,70,6.9,6.9,64,0.00,CLR,,0.01,WeatherDisplay:10.37,2013-05-23 20:16:00,
2013-05-23 16:21:00,85.7,73.9,29.91,ENE,74,9.2,9.2,68,0.00,CLR,,0.01,WeatherDisplay:10.37,2013-05-23 20:21:00,
2013-05-23 16:26:00,84.9,74.0,29.91,ENE,67,11.0,11.0,70,0.00,CLR,,0.01,WeatherDisplay:10.37,2013-05-23 20:26:00,
2013-05-23 16:31:00,84.6,74.2,29.91,ENE,59,10.0,10.0,71,0.00,CLR,,0.01,WeatherDisplay:10.37,2013-05-23 20:31:00,
2013-05-23 16:36:00,84.4,74.4,29.91,ENE,73,10.4,10.4,72,0.00,CLR,,0.01,WeatherDisplay:10.37,2013-05-23 20:36:00,
2013-05-23 16:41:00,84.2,73.8,29.91,ENE,76,11.5,11.5,71,0.00,CLR,,0.01,WeatherDisplay:10.37,2013-05-23 20:41:00,
2013-05-23 16:46:00,84.1,74.1,29.91,ENE,71,8.1,8.1,72,0.00,CLR,,0.01,WeatherDisplay:10.37,2013-05-23 20:46:00,
2013-05-23 16:51:00,84.3,74.3,29.91,East,80,11.5,11.5,72,0.00,CLR,,0.01,WeatherDisplay:10.37,2013-05-23 20:51:00,
2013-05-23 16:56:00,83.8,73.8,29.91,NNE,17,11.5,11.5,72,0.00,CLR,,0.01,WeatherDisplay:10.37,2013-05-23 20:56:00,
2013-05-23 17:01:00,83.9,73.9,29.91,ENE,63,14.0,14.0,72,0.00,CLR,,0.01,WeatherDisplay:10.37,2013-05-23 21:01:00,
2013-05-23 17:06:00,83.7,73.7,29.92,ENE,75,13.0,13.0,72,0.00,CLR,,0.01,WeatherDisplay:10.37,2013-05-23 21:06:00,
2013-05-23 17:11:00,83.4,73.8,29.92,ESE,110,11.5,11.5,73,0.00,CLR,,0.01,WeatherDisplay:10.37,2013-05-23 21:11:00,
2013-05-23 17:16:00,83.1,73.9,29.92,ENE,64,10.4,10.4,74,0.00,CLR,,0.01,WeatherDisplay:10.37,2013-05-23 21:16:00,
2013-05-23 17:21:00,83.2,73.6,29.92,East,88,9.2,9.2,73,0.00,CLR,,0.01,WeatherDisplay:10.37,2013-05-23 21:21:00,
2013-05-23 17:26:00,83.1,73.1,29.92,ENE,61,11.5,11.5,72,0.00,CLR,,0.01,WeatherDisplay:10.37,2013-05-23 21:26:00,
2013-05-23 17:31:00,82.9,73.4,29.92,ESE,113,9.2,9.2,73,0.00,CLR,,0.01,WeatherDisplay:10.37,2013-05-23 21:31:00,
2013-05-23 17:36:00,82.8,72.8,29.92,ENE,71,10.0,10.0,72,0.00,CLR,,0.01,WeatherDisplay:10.37,2013-05-23 21:36:00,
2013-05-23 17:41:00,82.7,73.2,29.92,ENE,72,5.8,5.8,73,0.00,CLR,,0.01,WeatherDisplay:10.37,2013-05-23 21:41:00,
2013-05-23 17:46:00,82.7,73.2,29.92,ENE,76,9.2,9.2,73,0.00,CLR,,0.01,WeatherDisplay:10.37,2013-05-23 21:46:00,
2013-05-23 17:51:00,82.7,73.6,29.92,ENE,64,10.4,10.4,74,0.00,CLR,,0.01,WeatherDisplay:10.37,2013-05-23 21:51:00,
2013-05-23 17:56:00,82.8,73.3,29.92,ENE,65,8.1,8.1,73,0.00,CLR,,0.01,WeatherDisplay:10.37,2013-05-23 21:56:00,
2013-05-23 18:01:00,82.6,73.1,29.92,NE,56,11.5,11.5,73,0.00,CLR,,0.01,WeatherDisplay:10.37,2013-05-23 22:01:00,
2013-05-23 18:06:00,82.5,73.0,29.92,ENE,67,9.2,9.2,73,0.00,CLR,,0.01,WeatherDisplay:10.37,2013-05-23 22:06:00,
2013-05-23 18:11:00,82.7,73.2,29.92,East,92,3.5,3.5,73,0.00,CLR,,0.01,WeatherDisplay:10.37,2013-05-23 22:11:00,
2013-05-23 18:16:00,82.9,73.4,29.92,NE,39,4.6,4.6,73,0.00,CLR,,0.01,WeatherDisplay:10.37,2013-05-23 22:16:00,
2013-05-23 18:21:00,82.6,72.7,29.92,ESE,102,6.9,6.9,72,0.00,CLR,,0.01,WeatherDisplay:10.37,2013-05-23 22:21:00,
2013-05-23 18:26:00,82.3,73.2,29.92,ENE,76,5.8,5.8,74,0.00,CLR,,0.01,WeatherDisplay:10.37,2013-05-23 22:26:00,
2013-05-23 18:31:00,82.4,73.3,29.92,East,83,6.0,6.0,74,0.00,CLR,,0.01,WeatherDisplay:10.37,2013-05-23 22:31:00,
2013-05-23 18:36:00,82.3,72.8,29.92,ENE,69,9.2,9.2,73,0.00,CLR,,0.01,WeatherDisplay:10.37,2013-05-23 22:36:00,
2013-05-23 18:41:00,82.1,73.0,29.92,ENE,74,5.8,5.8,74,0.00,CLR,,0.01,WeatherDisplay:10.37,2013-05-23 22:41:00,
2013-05-23 18:46:00,82.1,73.8,29.92,ENE,65,4.0,4.0,76,0.00,CLR,,0.01,WeatherDisplay:10.37,2013-05-23 22:46:00,
2013-05-23 18:51:00,82.2,72.3,29.92,ESE,105,5.8,5.8,72,0.00,CLR,,0.01,WeatherDisplay:10.37,2013-05-23 22:51:00,
2013-05-23 18:56:00,82.1,73.0,29.92,ENE,77,3.5,3.5,74,0.00,CLR,,0.01,WeatherDisplay:10.37,2013-05-23 22:56:00,
2013-05-23 19:01:00,82.1,73.0,29.92,ESE,103,4.6,4.6,74,0.00,CLR,,0.01,WeatherDisplay:10.37,2013-05-23 23:01:00,
2013-05-23 19:06:00,81.9,72.8,29.92,ESE,123,6.9,6.9,74,0.00,CLR,,0.01,WeatherDisplay:10.37,2013-05-23 23:06:00,
2013-05-23 19:11:00,81.7,73.0,29.92,SE,146,7.0,7.0,75,0.00,CLR,,0.01,WeatherDisplay:10.37,2013-05-23 23:11:00,
2013-05-23 19:16:00,81.4,72.7,29.92,ENE,78,5.8,5.8,75,0.00,CLR,,0.01,WeatherDisplay:10.37,2013-05-23 23:16:00,
2013-05-23 19:21:00,81.2,72.9,29.92,SE,131,7.0,7.0,76,0.00,CLR,,0.01,WeatherDisplay:10.37,2013-05-23 23:21:00,
2013-05-23 19:26:00,81.0,73.1,29.92,ESE,105,10.4,10.4,77,0.00,CLR,,0.01,WeatherDisplay:10.37,2013-05-23 23:26:00,
2013-05-23 19:31:00,80.9,73.4,29.92,SE,126,5.8,5.8,78,0.00,CLR,,0.01,WeatherDisplay:10.37,2013-05-23 23:31:00,
2013-05-23 19:36:00,80.7,73.2,29.93,SE,132,5.8,5.8,78,0.00,CLR,,0.01,WeatherDisplay:10.37,2013-05-23 23:36:00,
2013-05-23 19:41:00,80.5,73.0,29.92,SSE,166,9.2,9.2,78,0.00,CLR,,0.01,WeatherDisplay:10.37,2013-05-23 23:41:00,
2013-05-23 19:46:00,80.4,73.3,29.92,SSE,153,5.8,5.8,79,0.00,CLR,,0.01,WeatherDisplay:10.37,2013-05-23 23:46:00,
2013-05-23 19:51:00,80.4,73.3,29.93,SE,143,5.8,5.8,79,0.00,CLR,,0.01,WeatherDisplay:10.37,2013-05-23 23:51:00,
2013-05-23 19:56:00,80.1,73.0,29.93,SE,137,8.1,8.1,79,0.00,CLR,,0.01,WeatherDisplay:10.37,2013-05-23 23:56:00,
2013-05-23 20:01:00,79.9,73.2,29.93,SE,138,5.8,5.8,80,0.00,CLR,,0.01,WeatherDisplay:10.37,2013-05-24 00:01:00,
2013-05-23 20:06:00,79.7,73.0,29.94,ESE,119,3.5,3.5,80,0.00,CLR,,0.01,WeatherDisplay:10.37,2013-05-24 00:06:00,
2013-05-23 20:11:00,79.6,73.3,29.94,SE,134,6.9,6.9,81,0.00,CLR,,0.01,WeatherDisplay:10.37,2013-05-24 00:11:00,
2013-05-23 20:16:00,79.5,73.2,29.94,SE,124,9.2,9.2,81,0.00,CLR,,0.01,WeatherDisplay:10.37,2013-05-24 00:16:00,
2013-05-23 20:21:00,79.4,73.1,29.94,SSE,153,8.1,8.1,81,0.00,CLR,,0.01,WeatherDisplay:10.37,2013-05-24 00:21:00,
2013-05-23 20:26:00,79.4,73.4,29.95,SE,140,6.0,6.0,82,0.00,CLR,,0.01,WeatherDisplay:10.37,2013-05-24 00:26:00,
2013-05-23 20:31:00,79.4,73.4,29.95,SE,142,6.0,6.0,82,0.00,CLR,,0.01,WeatherDisplay:10.37,2013-05-24 00:31:00,
2013-05-23 20:36:00,79.3,73.3,29.94,SE,125,5.8,5.8,82,0.00,CLR,,0.01,WeatherDisplay:10.37,2013-05-24 00:36:00,
2013-05-23 20:41:00,79.3,73.7,29.95,SE,140,6.9,6.9,83,0.00,CLR,,0.01,WeatherDisplay:10.37,2013-05-24 00:41:00,
2013-05-23 20:46:00,79.2,73.6,29.95,SE,142,4.6,4.6,83,0.00,CLR,,0.01,WeatherDisplay:10.37,2013-05-24 00:46:00,
2013-05-23 20:51:00,79.2,73.6,29.95,SE,125,5.8,5.8,83,0.00,CLR,,0.01,WeatherDisplay:10.37,2013-05-24 00:51:00,
2013-05-23 20:56:00,79.1,73.5,29.95,SSE,151,5.8,5.8,83,0.00,CLR,,0.01,WeatherDisplay:10.37,2013-05-24 00:56:00,
2013-05-23 21:01:00,79.1,73.8,29.95,SSE,148,4.6,4.6,84,0.00,CLR,,0.01,WeatherDisplay:10.37,2013-05-24 01:01:00,
2013-05-23 21:06:00,79.0,73.7,29.95,SSE,149,4.6,4.6,84,0.00,CLR,,0.01,WeatherDisplay:10.37,2013-05-24 01:06:00,
2013-05-23 21:11:00,78.9,73.7,29.94,South,180,5.8,5.8,84,0.00,CLR,,0.01,WeatherDisplay:10.37,2013-05-24 01:11:00,
2013-05-23 21:16:00,78.9,73.7,29.95,SE,131,4.6,4.6,84,0.00,CLR,,0.01,WeatherDisplay:10.37,2013-05-24 01:16:00,
2013-05-23 21:21:00,78.9,74.0,29.95,SE,139,6.9,6.9,85,0.00,CLR,,0.01,WeatherDisplay:10.37,2013-05-24 01:21:00,
2013-05-23 21:46:00,78.7,73.8,29.95,SSE,157,6.0,6.0,85,0.00,CLR,,0.01,WeatherDisplay:10.37,2013-05-24 01:46:00,
2013-05-23 21:51:00,78.7,73.8,29.95,SE,145,8.1,8.1,85,0.00,CLR,,0.01,WeatherDisplay:10.37,2013-05-24 01:51:00,
2013-05-23 21:56:00,78.7,73.8,29.95,SE,132,4.6,4.6,85,0.00,CLR,,0.01,WeatherDisplay:10.37,2013-05-24 01:56:00,
2013-05-23 22:01:00,78.6,74.1,29.95,SSE,147,4.0,4.0,86,0.00,CLR,,0.01,WeatherDisplay:10.37,2013-05-24 02:01:00,
2013-05-23 22:06:00,78.6,74.1,29.95,SSE,153,4.6,4.6,86,0.00,CLR,,0.01,WeatherDisplay:10.37,2013-05-24 02:06:00,
2013-05-23 22:11:00,78.5,74.0,29.95,SSE,165,3.5,3.5,86,0.00,CLR,,0.01,WeatherDisplay:10.37,2013-05-24 02:11:00,
2013-05-23 22:16:00,78.5,74.0,29.95,SSE,148,4.6,4.6,86,0.00,CLR,,0.01,WeatherDisplay:10.37,2013-05-24 02:16:00,
2013-05-23 22:21:00,78.5,74.0,29.95,SE,135,4.6,4.6,86,0.00,CLR,,0.01,WeatherDisplay:10.37,2013-05-24 02:21:00,
2013-05-23 22:26:00,78.5,74.0,29.96,SE,144,3.5,3.5,86,0.00,CLR,,0.01,WeatherDisplay:10.37,2013-05-24 02:26:00,
2013-05-23 22:31:00,78.5,74.0,29.96,ESE,122,4.0,4.0,86,0.00,CLR,,0.01,WeatherDisplay:10.37,2013-05-24 02:31:00,
2013-05-23 22:36:00,78.5,74.0,29.96,SE,134,3.5,3.5,86,0.00,CLR,,0.01,WeatherDisplay:10.37,2013-05-24 02:36:00,
2013-05-23 22:41:00,78.5,74.3,29.96,SE,146,3.5,3.5,87,0.00,CLR,,0.01,WeatherDisplay:10.37,2013-05-24 02:41:00,
2013-05-23 22:46:00,78.5,74.3,29.97,SE,141,1.2,1.2,87,0.00,CLR,,0.01,WeatherDisplay:10.37,2013-05-24 02:46:00,
2013-05-23 22:51:00,78.5,74.3,29.97,SSE,150,2.3,2.3,87,0.00,CLR,,0.01,WeatherDisplay:10.37,2013-05-24 02:51:00,
2013-05-23 22:56:00,78.5,74.3,29.97,SSE,163,2.3,2.3,87,0.00,CLR,,0.01,WeatherDisplay:10.37,2013-05-24 02:56:00,
2013-05-23 23:01:00,78.4,74.2,29.97,SE,146,3.5,3.5,87,0.00,CLR,,0.01,WeatherDisplay:10.37,2013-05-24 03:01:00,
2013-05-23 23:06:00,78.4,74.5,29.97,SSE,154,3.5,3.5,88,0.00,CLR,,0.01,WeatherDisplay:10.37,2013-05-24 03:06:00,
2013-05-23 23:11:00,78.5,74.6,29.97,SSE,153,3.0,3.0,88,0.00,CLR,,0.01,WeatherDisplay:10.37,2013-05-24 03:11:00,
2013-05-23 23:16:00,78.5,74.6,29.97,SE,140,3.5,3.5,88,0.00,CLR,,0.01,WeatherDisplay:10.37,2013-05-24 03:16:00,
2013-05-23 23:21:00,78.5,74.6,29.97,SE,140,4.0,4.0,88,0.00,CLR,,0.01,WeatherDisplay:10.37,2013-05-24 03:21:00,
2013-05-23 23:26:00,78.5,74.6,29.97,SSE,147,3.5,3.5,88,0.00,CLR,,0.01,WeatherDisplay:10.37,2013-05-24 03:26:00,
2013-05-23 23:31:00,78.6,74.7,29.97,South,185,3.5,3.5,88,0.00,CLR,,0.01,WeatherDisplay:10.37,2013-05-24 03:31:00,
2013-05-23 23:36:00,78.6,74.7,29.97,South,169,3.5,3.5,88,0.00,CLR,,0.01,WeatherDisplay:10.37,2013-05-24 03:36:00,
2013-05-23 23:41:00,78.6,75.1,29.96,SSE,166,4.6,4.6,89,0.00,CLR,,0.01,WeatherDisplay:10.37,2013-05-24 03:41:00,
2013-05-23 23:46:00,78.7,75.2,29.96,SSE,158,3.5,3.5,89,0.00,CLR,,0.01,WeatherDisplay:10.37,2013-05-24 03:46:00,
2013-05-23 23:51:00,78.7,75.2,29.96,SSE,153,3.5,3.5,89,0.00,CLR,,0.01,WeatherDisplay:10.37,2013-05-24 03:51:00,
2013-05-23 23:56:00,78.7,75.2,29.96,SSE,149,4.0,4.0,89,0.00,CLR,,0.01,WeatherDisplay:10.37,2013-05-24 03:56:00,